This demonstration page uses our WeatherBlox Daily Observations layout. Learn more.

Left ArrowRight Arrow

38.83388, -104.82136

Hourly Observations for November 25, 2019

Temp ( °F °C ) Dew Point ( °F °C ) Humidity (%) Winds ( mph kmh ) Pressure ( in mb ) Visibility ( mi km ) Precip ( " mm )
12:58 am 00:58 Clear 42 5.7 6 -14.3 22 22 Calm 29.35 994 10 16 0.00 0.00
1:58 am 01:58 Clear 41 4.9 11 -11.8 29 29 W 3 6 29.38 995 10 16 0.00 0.00
2:58 am 02:58 Clear 41 4.9 10 -12.1 28 28 Calm 29.37 995 10 16 0.00 0.00
3:58 am 03:58 Clear 39 3.9 13 -10.8 34 34 W 3 6 29.36 994 10 16 0.00 0.00
4:58 am 04:58 Clear 40 4.4 13 -10.8 32 32 NW 5 7 29.38 995 10 16 0.00 0.00
5:58 am 05:58 Mostly Cloudy 41 5.2 10 -12.5 27 27 S 3 6 29.38 995 10 16 0.00 0.00
6:58 am 06:58 Mostly Cloudy 42 5.8 8 -13.5 24 24 S 6 9 29.39 995 10 16 0.00 0.00
7:58 am 07:58 Mostly Cloudy 40 4.6 12 -11.2 31 31 S 10 17 29.39 995 10 16 0.00 0.00
8:58 am 08:58 Mostly Sunny 42 5.5 15 -9.3 34 34 SSE 10 17 29.36 994 10 16 0.00 0.00
9:58 am 09:58 Mostly Cloudy 42 5.5 20 -6.5 42 42 ESE 16 26 29.38 995 10 16 0.00 0.00
10:58 am 10:58 Mostly Cloudy 39 4.1 19 -7.1 44 44 SSE 18 30 29.36 994 10 16 0.00 0.00
11:58 am 11:58 Partly Cloudy 40 4.4 19 -7.1 43 43 SE 23 37 29.31 993 10 16 0.00 0.00
12:58 pm 12:58 Mostly Cloudy 37 2.7 22 -5.5 55 55 SSE 16 26 29.31 993 10 16 0.00 0.00
1:58 pm 13:58 Mostly Cloudy 35 1.8 22 -5.6 58 58 SSE 16 26 29.30 992 10 16 0.00 0.00
2:58 pm 14:58 Mostly Cloudy 34 1.1 25 -4 69 69 SSE 18 30 29.28 991 10 16 0.00 0.00
3:38 pm 15:38 Mostly Cloudy 32 0 25 -4 75 75 SSE 12 19 29.29 992 10 16 0.00 0.00
3:58 pm 15:58 Mostly Cloudy 32 0 24 -4.5 72 72 SE 14 22 29.29 992 10 16 0.00 0.00
4:58 pm 16:58 Mostly Cloudy 32 0 23 -5.1 69 69 S 8 13 29.29 992 10 16 0.00 0.00
5:58 pm 17:58 Cloudy 32 0.2 23 -5.1 68 68 SSW 10 17 29.26 991 10 16 0.00 0.00
6:38 pm 18:38 Cloudy 32 0 23 -5 69 69 SE 10 17 29.25 990 10 16 0.00 0.00
6:43 pm 18:43 Cloudy 32 0 23 -5 69 69 SSE 12 19 29.25 990 10 16 0.00 0.00
6:58 pm 18:58 Cloudy 32 -0.2 22 -5.5 68 68 S 10 17 29.23 990 10 16 0.00 0.00
7:08 pm 19:08 Cloudy 32 0 21 -6 64 64 S 9 15 29.23 990 10 16 0.00 0.00
7:38 pm 19:38 Cloudy 32 0 21 -6 64 64 SSW 10 17 29.23 990 10 16 0.00 0.00
7:58 pm 19:58 Cloudy 31 -0.4 20 -6.5 64 64 SE 12 19 29.24 990 10 16 0.00 0.00
8:13 pm 20:13 Cloudy 30 -1 19 -7 64 64 SSE 13 20 29.23 990 10 16 0.00 0.00
8:58 pm 20:58 Mostly Cloudy 29 -1.4 19 -7 66 66 S 9 15 29.21 989 10 16 0.00 0.00
9:29 pm 21:29 Cloudy with Light Snow Showers 28 -2 19 -7 69 69 S 8 13 29.19 989 10 16 0.00 0.00
9:58 pm 21:58 Mostly Cloudy with Light Snow 26 -3.3 22 -5.4 86 86 SSE 3 6 29.19 988 1 1 0.00 0.00
10:03 pm 22:03 Mostly Cloudy with Snow 25 -4 23 -5 93 93 Calm 29.19 988 3 5 0.00 0.00
10:33 pm 22:33 Cloudy with Light Snow 25 -4 23 -5 93 93 SSE 3 6 29.18 988 5 8 0.00 0.00
10:43 pm 22:43 Cloudy with Light Snow 25 -4 21 -6 86 86 S 8 13 29.18 988 8 13 0.00 0.00
10:48 pm 22:48 Cloudy with Light Snow 25 -4 21 -6 86 86 S 5 7 29.18 988 3 5 0.00 0.00
10:58 pm 22:58 Cloudy with Light Snow 25 -3.8 21 -6.3 83 83 SSW 6 9 29.18 988 6 10 0.02 0.51
11:28 pm 23:28 Cloudy with Light Snow 25 -4 23 -5 93 93 Calm 29.16 987 7 11 0.00 0.00
11:43 pm 23:43 Cloudy with Light Snow 23 -5 21 -6 93 93 Calm 29.16 987 1 2 0.00 0.00
11:58 pm 23:58 Cloudy with Snow 24 -4.3 22 -5.4 92 92 S 3 6 29.16 987 1 1 0.01 0.25

Powered by AerisWeather